Find Starlink 31818

NORAD ID: 59741 Int'l Des: 2024-090 Owner: SPXS Country: US Constellation: starlink operational
LEOCIRCULAR

Live Position

Loading 3D Globe...

About Starlink 31818

Description loading...

Upcoming Passes

Passes for default location (London). Set your location on the main map for personalized predictions.

Altitude History

Loading altitude history...

Two-Line Element Set

1 59741U 24090M 26122.34596826 -.00004128 00000-0 -14064-3 0 9992
2 59741 42.9982 240.6880 0000803 277.0697 83.0063 15.27565538111649
Epoch: May 2, 2026 • Age: 14 hours

Current Status

Altitude 483.5 km
Velocity 7.63 km/s
Sub-Earth Point -4.84°S, 35.4°E
Launch Date May 13, 2024
Age 1.9 years
Type internet

Technical Details

Classification Payload
Mass 730.00 kg
Dry Mass 700.00 kg
Total Mass 730.00 kg
Length 0.30 m
Diameter 4.10 m
Span 29.00 m
Shape Box + pan
Manufacturer SPXS
Bus Type Starlink V2M
Phase Status In Orbit
Owner/State SPXS/US

Most Searched